Location: Cerna
(45.6833°N, 22.8333°E)
Time: 23:14:24
(UTC+00:00)

Daily predictions for brighter satellites

Satellite Brightness Start Highest point End
(mag) Time Altitude Azimuth Time Altitude Azimuth Time Altitude Azimuth
NOSS 2-3 (D) 4.3 16:29:45 10° WSW 16:33:24 49° NW 16:37:34 10° NNE
Meteor 1-21 4.4 16:28:00 10° N 16:33:51 90° SSE 16:39:35 10° S
Cosmos 2341 Rocket 4.3 16:29:08 10° N 16:35:28 79° W 16:41:48 10° S
Tiangong -0.7 16:33:45 10° SW 16:36:29 27° SSE 16:39:10 10° ESE
NOSS 3-1 (A) 3.7 16:34:38 10° S 16:39:04 34° ESE 16:44:10 10° NE
USA 305 2.3 16:39:32 10° WNW 16:41:42 43° SW 16:43:53 10° SE
CZ-4B R/B 2.7 16:38:46 10° SSE 16:42:07 47° ENE 16:45:32 10° N
USA 307 3.4 16:40:17 10° WNW 16:42:37 31° SW 16:45:01 10° SSE
GEOS 3 Rocket 3.8 16:39:54 10° NE 16:45:18 85° NW 16:50:35 10° SW
Cosmos 2218 Rocket 4.1 16:39:53 10° N 16:46:03 86° W 16:52:14 10° S
Meteor 1-29 3.8 16:44:47 10° S 16:47:32 43° W 16:50:18 10° NNW
BREEZE-M DEB (TANK) 4.1 16:42:53 10° WNW 16:49:47 55° N 16:52:24 12° E
NOSS 2-2 (D) 3.6 16:49:03 10° SW 16:52:15 53° NW 16:55:27 10° NNE
Cosmos 2292 4.2 16:49:19 10° S 16:52:19 89° WSW 16:55:44 10° N
ADEOS 3.7 16:49:32 10° SSE 16:54:45 82° WSW 17:00:00 10° NNW
CZ-4B DEB 4.3 16:49:28 10° SSE 16:54:46 56° ENE 17:00:06 10° N
Cosmos 1975 3.7 16:51:15 10° SSW 16:55:01 52° W 16:58:51 10° N
NOSS 2-2 (C) 3.7 16:53:24 10° SW 16:56:35 48° NW 16:59:46 10° NNE
IGS 5A 3.6 16:52:41 10° SE 16:56:36 48° ENE 17:00:34 10° N
Cosmos 1269 Rocket 4.1 16:52:49 10° S 16:57:59 56° ESE 17:03:10 10° NNE
Cosmos 1980 4.0 16:52:55 10° S 16:58:15 45° ESE 17:03:35 10° NE
Cosmos 1703 Rocket 3.8 16:57:02 10° NNW 17:01:30 78° W 17:05:57 10° S
SKYMED 2 4.1 16:57:26 10° N 17:01:46 64° WNW 17:06:02 10° SSW
USA 186 4.0 17:02:49 10° NE 17:02:49 10° NE 17:02:52 10° NE
CZ-4B R/B 3.7 17:00:46 10° SE 17:05:35 38° ENE 17:10:29 10° N
Cosmos 1867 3.8 17:01:24 10° S 17:06:34 47° ESE 17:11:47 10° NE
Cosmos 614 Rocket 3.8 17:02:36 10° SSW 17:07:39 81° ESE 17:12:44 10° NNE
Cosmos 1933 Rocket 3.9 17:04:19 10° SSW 17:08:40 68° W 17:13:01 10° N
Cosmos 2242 Rocket 3.6 17:04:58 10° N 17:09:27 61° E 17:13:57 10° SSE
Cosmos 2278 Rocket 2.2 17:04:27 10° NNW 17:10:10 78° ENE 17:15:50 10° SSE
Cosmos 1766 3.1 17:07:50 10° S 17:11:34 64° E 17:15:19 10° NNE
SL-08 R/B 4.0 17:08:16 10° N 17:13:09 61° WNW 17:17:58 10° SSW
Cosmos 1992 Rocket 4.0 17:08:54 10° NNW 17:14:10 89° WSW 17:19:24 10° SSE
PAYLOAD B 4.2 17:09:18 10° SSE 17:14:47 63° ENE 17:20:15 10° N
NOSS 3-1 (C) 3.5 17:10:36 10° SW 17:15:35 67° NW 17:21:36 10° NE
Okean 2 3.5 17:11:44 10° NNW 17:15:45 75° W 17:19:44 10° S
Cosmos 1934 Rocket 4.3 17:10:31 10° N 17:16:31 43° ENE 17:22:24 10° SE
USA 267 4.4 17:11:06 10° ENE 17:16:48 33° N 17:22:30 10° WNW
SL-08 R/B 4.4 17:13:17 10° N 17:19:26 77° E 17:25:32 10° SSE
ISS -1.6 17:20:20 10° W 17:23:02 23° SW 17:25:46 10° SSE
CZ-4C R/B 3.8 17:20:24 10° NE 17:23:27 28° E 17:26:31 10° SSE
BREEZE-M DEB (TANK) 2.5 17:23:41 10° WNW 17:26:08 86° SSW 17:28:47 23° ESE
Cosmos 2251 Rocket 4.3 17:25:10 10° SSE 17:29:37 28° E 17:34:05 10° NE
Cosmos 389 Rocket 4.2 17:27:49 10° NNE 17:28:45 15° NE 17:28:45 15° NE
BREEZE M DEB (TANK) 1.5 17:28:58 10° WSW 17:31:11 73° SSE 17:32:27 32° ENE
USA 276 2.9 17:29:30 10° SSW 17:31:14 26° S 17:31:14 26° S
Cosmos 2239 Rocket 4.4 17:26:54 10° N 17:33:08 86° E 17:39:22 10° S
YAOGAN 1 3.1 17:29:08 10° S 17:33:23 59° W 17:37:39 10° NNW
Cosmos 1674 Rocket 4.4 17:31:41 10° NNE 17:35:34 29° ENE 17:35:49 29° E
Cosmos 2237 Rocket 2.1 17:30:33 10° SSW 17:36:15 83° ESE 17:41:59 10° NNE
BREEZE-M R/B 4.4 17:32:46 10° WNW 17:37:51 79° SSW 17:45:09 21° ESE
Cosmos 2369 Rocket 3.6 17:34:06 10° N 17:38:14 20° NE 17:39:23 19° ENE
CZ-4 R/B 1.1 17:36:29 16° SSE 17:39:32 76° ENE 17:43:21 10° N
COSMOS 2455 4.0 17:35:16 10° NW 17:40:56 44° WSW 17:46:33 10° S
Lacrosse 5 3.0 17:36:38 10° NW 17:41:14 32° NNE 17:43:18 24° ENE
SL-4 R/B 2.7 17:39:46 10° SSW 17:43:44 35° SE 17:43:53 35° SE
SL-16 R/B 2.8 17:40:56 10° SSE 17:45:54 32° ESE 17:50:54 10° NE
NOSS 0 Rocket 4.4 17:40:08 10° SW 17:46:16 65° WNW 17:52:29 10° NNE
CZ-4C R/B 4.4 17:44:33 10° NNW 17:48:59 19° NNE 17:53:06 12° NE
Meteor 1-22 Rocket 4.2 17:45:03 10° SSE 17:50:07 50° E 17:55:16 10° NNE
ATLAS 3B R/B 3.6 17:43:40 10° WSW 17:50:28 52° NW 17:57:46 10° NNE
Cosmos 1943 Rocket 2.1 17:45:08 10° NNW 17:50:50 77° ENE 17:54:01 27° SE
CENTAUR R/B 4.1 17:45:13 10° NNW 17:52:03 31° NNE 17:56:11 22° ENE
Cosmos 1470 2.6 17:49:42 10° S 17:53:34 90° NNE 17:57:27 10° N
ADEOS Rocket 3.7 17:51:46 26° SE 17:55:56 50° ENE 18:02:45 10° N
Landsat 7 3.9 17:52:45 10° S 17:57:26 75° WSW 18:02:11 10° NNW
SJ-6B 2.8 17:55:31 27° S 17:57:40 84° WSW 18:01:40 10° NNW
Cosmos 2221 Rocket 3.6 17:56:41 10° N 18:01:09 56° ENE 18:01:29 54° E
Cosmos 2297 4.2 17:57:14 10° NNW 18:02:39 40° NE 18:03:29 38° ENE
Okean O Rocket 1.5 18:02:08 40° SSE 18:03:42 82° ENE 18:08:11 10° NNW
Meteor 1-12 Rocket 4.2 17:59:29 10° S 18:05:16 72° E 18:11:13 10° NNE
CSL-04 Debris 4.0 18:06:42 35° SSE 18:09:06 77° ENE 18:14:31 10° NNW
Tiangong -0.2 18:09:52 10° WSW 18:11:32 25° SW 18:11:32 25° SW
USA 229 DEB 3.4 18:06:50 10° SSW 18:12:57 78° SE 18:19:41 10° NE
USA 229 3.4 18:06:54 10° SSW 18:13:02 77° SE 18:19:47 10° NE
Cosmos 407 Rocket 3.4 18:13:04 10° S 18:18:15 66° ESE 18:23:31 10° NNE
Resurs 1-3 4.0 18:17:13 33° SSW 18:19:01 61° W 18:23:22 10° NNW
Meteor 1-24 Rocket 3.4 18:16:00 10° N 18:21:25 87° E 18:22:46 52° SSE
CSL-04 Rocket 3.5 18:24:15 50° SSE 18:25:42 87° WSW 18:31:04 10° NNW
Meteor 2-5 Rocket 3.7 18:20:08 10° NNW 18:25:49 82° W 18:27:52 41° S
SME Rocket 4.3 18:19:56 10° S 18:27:10 62° WSW 18:32:01 10° NNW
NOSS 3-1 (A) 4.2 18:24:46 10° WSW 18:29:41 43° NW 18:35:35 10° NNE
Cosmos 1733 Rocket 4.0 18:26:07 10° SSW 18:30:20 47° WNW 18:34:33 10° N
Resurs 01 Rocket 2.1 18:32:26 52° N 18:32:26 52° N 18:35:51 10° N
SPOT 1/Viking Rocket 3.5 18:30:18 55° S 18:31:26 78° WSW 18:36:36 10° NNW
USA 186 4.3 18:35:27 18° NW 18:35:27 18° NW 18:36:28 10° NNW
BREEZE-M DEB (TANK) 4.2 18:21:51 10° W 18:39:17 88° N 18:40:40 59° E
H-2A R/B (2) 4.3 18:37:09 10° SSW 18:38:11 14° SSW 18:38:11 14° SSW
Okean-O 3.6 18:46:44 43° NNW 18:46:44 43° NNW 18:49:44 10° NNW
Cosmos 1763 Rocket 4.1 18:41:09 10° NNW 18:44:58 46° N 18:44:58 46° N
Cosmos 1140 Rocket 4.2 18:46:23 10° SW 18:51:22 50° WNW 18:56:27 10° NNE
Cosmos 972 Rocket 4.3 18:49:31 10° NNW 18:53:55 60° NNW 18:53:55 60° NNW
USA 267 3.7 18:58:14 45° NE 18:58:56 47° NNE 19:05:09 10° NW
Terra 4.3 19:19:07 14° N 19:19:07 14° N 19:19:52 10° N
Cosmos 2369 Rocket 3.1 19:17:19 10° NNW 19:21:10 46° NW 19:21:10 46° NW
Lacrosse 5 3.3 19:19:33 10° NW 19:22:30 35° NW 19:22:30 35° NW
SL-16 R/B 3.2 19:24:29 10° SW 19:29:52 43° NW 19:35:17 10° NNE
Cosmos 1943 Rocket 4.5 19:30:23 10° WNW 19:33:51 17° W 19:35:34 15° WSW
CZ-4C R/B 3.7 19:32:46 10° NNW 19:38:13 40° NNE 19:38:13 40° NNE
CENTAUR R/B 3.2 19:35:46 10° NW 19:43:21 74° N 19:43:21 74° N
ATLAS 2AS CENTAUR R/B 4.5 23:34:39 27° NE 23:34:39 27° NE 23:37:39 10° NE
